sat.trackr.live / text

‹ back to catalog

YAOGAN-43 01D

NORAD 60461 · 2024-148D

PAYLOAD ACTIVE UNKNOWN

§ Identity

Operator
Country
PRC
Launch date
2024-08-16
Launch site
XICLF
Launch vehicle
Mass (kg)
RCS (m²)

External: N2YO · Heavens-Above · Gunter

§ Orbital elements

Epoch: 2026-05-24T19:54:19.800576Z

Period
94.15 min
Inclination
35.0044°
Eccentricity
0.0003084
Mean motion
15.29504113 rev/d
Perigee alt
475.2 km
Apogee alt
479.4 km
Semi-major
6,855.4 km
B*
2.1870e-4
RAAN
296.8790°
Arg perigee
328.3435°
Mean anomaly
31.7096°
Rev number
9,870

§ Raw data

YAOGAN-43 01D1 60461U 24148D   26144.82939584  .00006382  00000+0  21870-3 0  99902 60461  35.0044 296.8790 0003084 328.3435  31.7096 15.29504113 98700

JSON: /api/v1/satellites/60461 · /tle

For live sub-satellite position, see the globe view (requires WebGL).

§ Visibility from observer

Set your observer location to see the next 7 days of passes ≥ 10°. The values pass through the URL so the page stays shareable.

No JS? Fill the form by hand. The geolocation button needs JavaScript.